Regional Weather Roundup
Issued by NWS State College, PA

Home | Current Version | Previous Version | Text Only | Print | Product List | Glossary On
Versions: 1 2 3 4 5 6 7 8 9 10 11 12 13 14 15 16 17 18 19 20 21 22 23 24 25 26 27 28 29 30 31 32 33 34 35 36 37 38 39 40 41 42 43 44 45 46 47 48 49 50
000
ASUS41 KCTP 242203
RWRCTP

REGIONAL WEATHER ROUNDUP
NATIONAL WEATHER SERVICE STATE COLLEGE PA
600 PM EDT SAT SEP 24 2016

Note: "fair" indicates few or no clouds below 12,000 feet with no
significant weather and/or obstructions to visibility.

* = STATION THAT DOES NOT REPORT PRECIPITATION /E.G. RAIN...SNOW...ETC/
    THUNDER OR FOG.

PAZ002>004-007>009-013>016-020>023-029>032-242300-
WESTERN PENNSYLVANIA

CITY           SKY/WX    TMP DP  RH WIND       PRES   REMARKS
ERIE           SUNNY     64  47  53 NE12      30.21S
MEADVILLE      SUNNY     63  48  58 N9        30.19S
FRANKLIN*        N/A     64  46  52 N5        30.18S
NEW CASTLE     FAIR      69  50  50 N6        30.18R
BEAVER COUNTY  NOT AVBL
BUTLER*        SUNNY     70  52  52 N6        30.19R
PITTSBURGH INT MOSUNNY   72  50  45 NW10      30.15R
PITTSBURGH     SUNNY     72  53  51 CALM      30.14S
INDIANA*       SUNNY     70  52  52 CALM      30.18S
LATROBE        SUNNY     68  54  60 CALM      30.16S
WASHINGTON CO* SUNNY     72  54  53 N6        30.16R
$$

PAZ004>006-010>012-017>019-024>028-033>037-041-042-045-046-049>053-242300-
CENTRAL PENNSYLVANIA

CITY           SKY/WX    TMP DP  RH WIND       PRES   REMARKS
BRADFORD       SUNNY     62  45  53 N7        30.19R
DUBOIS         SUNNY     67  45  45 N7        30.15S
CLEARFIELD     SUNNY     70  45  40 NW9       30.15R
JOHNSTOWN      SUNNY     64  53  67 NW8       30.17R
ALTOONA        SUNNY     70  50  49 N7        30.15R
STATE COLLEGE  SUNNY     70  45  40 N6        30.13S
WILLIAMSPORT   SUNNY     70  44  39 N10       30.12R
SELINSGROVE    SUNNY     71  44  37 NE9       30.12S
FT INDIANTOWN  SUNNY     71  43  36 N6        30.10R
CAPITAL CITY   SUNNY     74  37  26 N7        30.10R
HARRISBURG     MOSUNNY   73  42  32 N10       30.09R
YORK           SUNNY     71  44  37 N8        30.10R
$$

PAZ038>040-043-044-047-048-054-055-060>062-067>071-242300-
EASTERN PENNSYLVANIA

CITY           SKY/WX    TMP DP  RH WIND       PRES   REMARKS
SCRANTON       CLEAR     66  42  41 N12       30.13R
MOUNT POCONO     N/A     60  40  47 MISG      30.14R
ALLENTOWN      CLEAR     71  43  36 N9        30.10R
QUAKERTOWN*    CLEAR     72  46  40 N8        30.10R
READING        CLEAR     71  44  37 N7        30.09R
LANCASTER      SUNNY     72  45  37 N10       30.10R
COATESVILLE    CLEAR     68  52  56 N5        30.11R
POTTSTOWN      CLEAR     71  44  37 N8        30.10R
BLUE BELL      CLEAR     70  52  52 E3        30.08R
DOYLESTOWN     CLEAR     73  48  41 VRB3      30.08R
WILLOW GROVE   NOT AVBL
NORTH PHILA    CLEAR     72  51  47 NE6       30.09S
PHILADELPHIA   PTCLDY    71  53  52 CALM      30.09R
$$




USA.gov is the U.S. government's official web portal to all federal, state and local government web resources and services.